Showing default

OPS 8464 (TRANSIT 5B-7), 1514

Orbit data source: Space-Track

OPS 8464 (TRANSIT 5B-7), 1514 is a payload satellite owned by USN BuWeps (US) in LEO that was launched on Fri, 13 Aug 1965 UTC via a THOR ABLESTAR launch vehicle from the Air Force Western Test Range (AFWTR). Payload-class satellites include a variety of spacecraft equipped with specific instruments for various scientific and technological missions. These include communications satellites like Starlink; space stations such as the ISS; scientific satellites like the Hubble; Earth observation satellites from companies like Planet Labs, Umbra, and HawkEye 360; GPS; miniature CubeSats for education and research; and military/defense satellites.

Loading next visibility...
Identifier
1514, 1965-065F
Orbit
LEO
Country
Flag of USUS
Related business
Manufacturer
NAFI
Mission
Spacecraft
Bus & Motor
TRANSIT 5, Unknown motor
Mass
~54 kg wet, ~54 kg dry
Launch date (UTC)
1965-08-13 (61 years ago)
Launch vehicle
THOR ABLESTAR
Launch site
Air Force Western Test Range (AFWTR)
Object type
Payload
Rocket body
Debris
Shape & HBR
OCT CYL + 4 PAN + ANT, 1.1 m
Radar Cross Section
Large (>1 m²)

Expand to show TLE details & history
Last TLE update: 12 hours ago

TLE from 12 hours ago
0 OPS 8464 (TRANSIT 5B-7)
1 01514U 65065F   26255.98107208  .00000050  00000-0  82181-4 0  9997
2 01514  89.9996 227.8789 0067859 273.7040 148.9622 13.35380656972981
Epoch: 2026-09-12T23:32Z
TLE epoch observation values (Epoch: 2026-09-12T23:32:44.627Z)
Latitude
63.14814°
Longitude
-117.28854°
Altitude
1,181.206 km
Speed
7.247 km/s
True Right ascension
15h 11m 31s
True Declination
63° 01' 01"
Sunlit
Object was in daylight at epoch
Visualization orbit readout
Latitude
Unknown
Longitude
Unknown
Altitude
Unknown
Speed
Unknown
Apparent Right ascension
Unknown
Apparent Declination
Unknown
Sunlit
N/A
Visualization observer readout
Local Sidereal Time
03:33:27
Azimuth
Unknown
Elevation
Unknown
Doppler factor
Unknown
Orbital elements
Apogee altitude
1,174.513 km
Perigee altitude
1,072.701 km
Semi-major axis
7,501.744 km
Eccentricity
0.00679
Inclination
89.9996°
RAAN
227.8789°
Arg. of periapsis
273.704°
True anomaly
149.36024°
Mean anomaly
148.9622°
Eccentric anomaly
149.16151°
Mean motion
3.34041 °/min
Orbital period
107.77 mins
BSTAR
0.000082181
Loading maneuver chart data...
Computing Atmospheric mass density...
Loading historical data...
Loading historical data...
Loading historical data...
Loading historical data...
Loading historical data...
Loading historical data...
Loading historical data...

Documentation

Showing up to 5 results
|